Back to catalog

ARIANE 44LP R/B

AliveHEO
NORAD 26490·ROCKET BODY·🇫🇷 France

Launched Aug 17, 2000 from Guiana Space Centre

Loading…

Next Passes (next 24 hours)

TLE

FreshSource: Space-Track

Epoch: Sep 14, 2026, 17:40 UTC

1 26490U 00046D   26257.73679301  .00002231  00000-0  84535-3 0  9995
2 26490   3.2460 325.3692 6714591 111.4696 328.9389  3.00445861241436

Track ARIANE 44LP R/B in real time with AllMySat

Download on the App Store